This is the latest recevied weather packets stored in our database for station/object EA5AER-5. If no packets are shown the sender has not sent any weather packets the latest 10 day(s).
| Time | Temp. | Humidity | Pressure | Rain* | Wind** | Luminosity | Snow |
|---|---|---|---|---|---|---|---|
| 1777443209 | 16.67° C | 42% | 1008.2 hPa | 0 mm | - | 39 W/m² | - |
| 1777442073 | 16.67° C | 42% | 1008.2 hPa | 0 mm | - | 39 W/m² | - |
| 1777440817 | 16.67° C | 28% | 1008.1 hPa | 0 mm | - | 11 W/m² | - |
| 1777439635 | 16.67° C | 18% | 1008 hPa | 0 mm | - | 0 W/m² | - |
| 1777438450 | 16.67° C | 18% | 1008 hPa | 0 mm | - | 0 W/m² | - |
| 1777437190 | 16.67° C | 18% | 1008 hPa | 0 mm | - | 0 W/m² | - |
| 1777435998 | 16.67° C | 18% | 1008 hPa | 0 mm | - | 0 W/m² | - |
| 1777434713 | 16.67° C | 18% | 1008 hPa | 0 mm | - | 0 W/m² | - |
| 1777433463 | 16.67° C | 18% | 1008 hPa | 0 mm | - | 0 W/m² | - |
| 1777432250 | 16.67° C | 18% | 1008 hPa | 0 mm | - | 0 W/m² | - |
| 1777431013 | 16.67° C | 30% | 1008.2 hPa | 0 mm | - | 0 W/m² | - |
| 1777429761 | 16.67° C | 30% | 1008.2 hPa | 0 mm | - | 0 W/m² | - |
| 1777428572 | 16.67° C | 26% | 1008 hPa | 0 mm | - | 0 W/m² | - |
| 1777427372 | 16.67° C | 24% | 1008 hPa | 0 mm | - | 0 W/m² | - |
| 1777426085 | 16.67° C | 20% | 1008.5 hPa | 0 mm | - | 0 W/m² | - |
| 1777424899 | 16.67° C | 20% | 1008.5 hPa | 0 mm | - | 0 W/m² | - |
| 1777423727 | 16.67° C | 21% | 1008.6 hPa | 0 mm | - | 0 W/m² | - |
| 1777422549 | 17.22° C | 21% | 1008.7 hPa | 0 mm | - | 0 W/m² | - |
| 1777421300 | 16.67° C | 3% | 1008.9 hPa | 0 mm | - | 0 W/m² | - |
| 1777420022 | 16.67° C | 3% | 1008.9 hPa | 0 mm | - | 0 W/m² | - |
| 1777418791 | 16.67° C | 3% | 1008.9 hPa | 0 mm | - | 0 W/m² | - |
| 1777417565 | 16.11° C | 3% | 1009.1 hPa | 0 mm | - | 0 W/m² | - |
| 1777416442 | 16.11° C | 3% | 1009.1 hPa | 0 mm | - | 0 W/m² | - |
| 1777415214 | 17.22° C | 11% | 1009.3 hPa | 0 mm | - | 0 W/m² | - |
| 1777413965 | 17.22° C | 11% | 1009.3 hPa | 0 mm | - | 0 W/m² | - |
* Rain latest hour (hover to see other rain measurements)
** Current wind speed in m/s (hover to see current wind gust speed)